CW0214 Weather Reports


Display with metric or nautical units.
time (UTC)temp
F
wind
direction
speed
MPH
gust
MPH
rain 1hr
in
rain 24hr
in
rain mn
in
humidity
%
barometer
mb
20260904193404 85 224 0.0 0.0 0.00 0.00 0.00 50 1018.7
20260904192905 85 224 0.0 1.0 0.00 0.00 0.00 50 1018.7
20260904192406 85 153 0.0 1.0 0.00 0.00 0.00 50 1018.4
20260904191406 85 277 0.0 1.0 0.00 0.00 0.00 52 1018.6
20260904190905 85 284 0.0 0.0 0.00 0.00 0.00 52 1018.9
20260904190406 85 284 0.0 0.0 0.00 0.00 0.00 52 1018.8
20260904185906 85 251 1.0 5.0 0.00 0.00 0.00 53 1018.4
20260904185406 85 241 1.0 7.0 0.00 0.00 0.00 53 1018.4
20260904184906 85 229 0.0 6.0 0.00 0.00 0.00 53 1018.6
20260904184405 85 240 0.0 0.0 0.00 0.00 0.00 53 1018.6
20260904183906 85 230 0.0 1.0 0.00 0.00 0.00 53 1018.5
20260904183408 85 194 0.0 2.0 0.00 0.00 0.00 53 1018.8
20260904182405 85 125 1.0 8.0 0.00 0.00 0.00 53 1018.9
20260904181905 85 96 1.0 5.0 0.00 0.00 0.00 53 1018.7
20260904180905 85 159 1.0 8.0 0.00 0.00 0.00 53 1019.2
20260904180406 85 110 0.0 0.0 0.00 0.00 0.00 53 1019.4
20260904175906 85 110 0.0 0.0 0.00 0.00 0.00 53 1019.5
20260904174906 86 135 1.0 5.0 0.00 0.00 0.00 52 1019.1
20260904174405 86 43 0.0 3.0 0.00 0.00 0.00 52 1018.9
20260904172905 86 72 1.0 8.0 0.00 0.00 0.00 50 1019.9
20260904171905 86 94 0.0 5.0 0.00 0.00 0.00 50 1020.0
20260904171406 86 47 1.0 9.0 0.00 0.00 0.00 50 1020.0
20260904170905 87 65 1.0 7.0 0.00 0.00 0.00 50 1019.7
20260904170405 87 69 0.0 7.0 0.00 0.00 0.00 50 1019.1
20260904165905 87 75 1.0 6.0 0.00 0.00 0.00 49 1018.9
20260904165405 87 87 0.0 1.0 0.00 0.00 0.00 49 1018.7
20260904164905 87 87 6.0 12.0 0.00 0.00 0.00 48 1018.8
20260904164405 87 19 2.0 6.0 0.00 0.00 0.00 48 1018.5
20260904163905 87 109 1.0 5.0 0.00 0.00 0.00 48 1018.2
20260904163406 87 19 2.0 6.0 0.00 0.00 0.00 48 1018.3
20260904162905 87 340 1.0 7.0 0.00 0.00 0.00 48 1018.5
20260904162405 88 120 3.0 8.0 0.00 0.00 0.00 47 1019.1
20260904161906 88 80 0.0 5.0 0.00 0.00 0.00 47 1020.0
20260904161405 88 74 0.0 3.0 0.00 0.00 0.00 47 1020.2
20260904160905 88 74 0.0 3.0 0.00 0.00 0.00 47 1020.1
20260904160405 89 74 0.0 1.0 0.00 0.00 0.00 46 1019.9
20260904155905 89 74 0.0 6.0 0.00 0.00 0.00 47 1019.9
20260904155405 89 80 2.0 7.0 0.00 0.00 0.00 46 1019.6
20260904154905 89 110 1.0 5.0 0.00 0.00 0.00 46 1019.6
20260904153905 89 228 0.0 0.0 0.00 0.00 0.00 47 1019.6
20260904153405 89 228 0.0 0.0 0.00 0.00 0.00 46 1019.6
20260904152905 88 228 0.0 0.0 0.00 0.00 0.00 47 1019.8
20260904152405 88 228 0.0 2.0 0.00 0.00 0.00 47 1019.6
20260904150905 88 145 0.0 5.0 0.00 0.00 0.00 47 1019.6
20260904145405 87 90 0.0 0.0 0.00 0.00 0.00 47 1019.8
20260904144405 87 90 0.0 1.0 0.00 0.00 0.00 49 1019.8
20260904143905 87 44 0.0 2.0 0.00 0.00 0.00 49 1019.6
20260904143405 87 294 0.0 3.0 0.00 0.00 0.00 50 1019.4
20260904142906 87 274 0.0 6.0 0.00 0.00 0.00 49 1019.3
20260904141905 88 168 0.0 2.0 0.00 0.00 0.00 46 1020.6
20260904141405 88 116 0.0 1.0 0.00 0.00 0.00 48 1021.1
20260904140905 87 116 0.0 3.0 0.00 0.00 0.00 48 1021.0
20260904140406 87 104 1.0 7.0 0.00 0.00 0.00 49 1021.0
20260904135905 87 40 1.0 6.0 0.00 0.00 0.00 49 1021.0
20260904135405 87 115 0.0 2.0 0.00 0.00 0.00 49 1021.0
20260904134905 87 114 1.0 8.0 0.00 0.00 0.00 49 1020.8
20260904134405 87 104 1.0 9.0 0.00 0.00 0.00 49 1020.8
20260904133905 86 113 1.0 9.0 0.00 0.00 0.00 50 1021.0
20260904133405 86 109 2.0 10.0 0.00 0.00 0.00 49 1021.0
20260904132905 86 112 3.0 12.0 0.00 0.00 0.00 50 1020.8
20260904132405 86 127 2.0 12.0 0.00 0.00 0.00 51 1020.9
20260904131905 86 149 0.0 5.0 0.00 0.00 0.00 52 1020.6
20260904130905 85 161 0.0 9.0 0.00 0.00 0.00 54 1020.6
20260904130406 85 150 2.0 6.0 0.00 0.00 0.00 53 1020.5
20260904125905 85 126 3.0 9.0 0.00 0.00 0.00 52 1020.6
20260904125405 85 128 1.0 6.0 0.00 0.00 0.00 52 1020.8
20260904124405 85 151 0.0 6.0 0.00 0.00 0.00 51 1020.7
20260904123905 85 151 1.0 6.0 0.00 0.00 0.00 51 1020.7
20260904123405 86 145 1.0 7.0 0.00 0.00 0.00 50 1020.8
20260904122905 86 100 2.0 9.0 0.00 0.00 0.00 50 1021.0
20260904122405 85 58 1.0 5.0 0.00 0.00 0.00 51 1020.9
20260904121905 85 85 2.0 9.0 0.00 0.00 0.00 51 1020.9
20260904121406 85 49 4.0 10.0 0.00 0.00 0.00 51 1021.1
20260904120405 83 266 0.0 5.0 0.00 0.00 0.00 53 1020.5
20260904115405 81 195 0.0 0.0 0.00 0.00 0.00 56 1020.7
20260904114905 80 195 0.0 0.0 0.00 0.00 0.00 57 1020.8
20260904114405 80 195 0.0 0.0 0.00 0.00 0.00 57 1020.7
20260904113905 79 285 0.0 1.0 0.00 0.00 0.00 58 1021.0
20260904113404 79 225 4.0 7.0 0.00 0.00 0.00 59 1020.6
20260904112905 79 223 3.0 7.0 0.00 0.00 0.00 59 1020.4
20260904112405 79 206 3.0 10.0 0.00 0.00 0.00 59 1020.5
20260904111905 79 213 7.0 12.0 0.00 0.00 0.00 58 1020.4
20260904111405 79 219 6.0 9.0 0.00 0.00 0.00 58 1020.7
20260904110405 79 211 2.0 7.0 0.00 0.00 0.00 58 1021.4
20260904105905 79 231 0.0 3.0 0.00 0.00 0.00 58 1021.2
20260904105405 78 92 1.0 5.0 0.00 0.00 0.00 58 1021.9
20260904104905 78 355 0.0 0.0 0.00 0.00 0.00 58 1021.6
20260904104405 78 28 1.0 6.0 0.00 0.00 0.00 59 1021.7
20260904103905 78 65 0.0 2.0 0.00 0.00 0.00 59 1021.6
20260904103404 77 23 1.0 12.0 0.00 0.00 0.00 59 1021.7
20260904102905 77 10 7.0 12.0 0.00 0.00 0.00 58 1022.0
20260904102405 77 27 10.0 20.0 0.00 0.00 0.00 59 1022.0
20260904101405 76 268 0.0 6.0 0.00 0.00 0.00 58 1020.6
20260904100405 76 296 3.0 7.0 0.00 0.00 0.00 59 1021.0
20260904095905 76 225 0.0 5.0 0.00 0.00 0.00 59 1020.9
20260904095405 76 228 2.0 7.0 0.00 0.00 0.00 59 1020.9
20260904094905 76 242 3.0 9.0 0.00 0.00 0.00 58 1020.9
20260904094405 76 194 6.0 8.0 0.00 0.00 0.00 58 1021.0
20260904093905 76 50 0.0 1.0 0.00 0.00 0.00 59 1021.7
20260904093405 76 222 0.0 1.0 0.00 0.00 0.00 58 1021.6
20260904092905 76 222 0.0 0.0 0.00 0.00 0.00 58 1021.5
20260904092405 76 222 0.0 0.0 0.00 0.00 0.00 58 1021.5
20260904091905 76 222 0.0 0.0 0.00 0.00 0.00 58 1021.5
20260904091405 75 222 0.0 0.0 0.00 0.00 0.00 58 1021.3
20260904090905 75 222 0.0 0.0 0.00 0.00 0.00 59 1021.3
20260904085905 75 225 2.0 7.0 0.00 0.00 0.00 59 1021.1
20260904084905 75 224 3.0 6.0 0.00 0.00 0.00 58 1021.1
20260904084404 74 229 0.0 1.0 0.00 0.00 0.00 59 1021.2
20260904083904 74 229 0.0 0.0 0.00 0.00 0.00 59 1021.3
20260904082405 74 201 5.0 7.0 0.00 0.00 0.00 58 1021.2
20260904081904 74 218 0.0 0.0 0.00 0.00 0.00 59 1021.3
20260904081405 74 240 0.0 1.0 0.00 0.00 0.00 59 1021.3
20260904080905 74 9 0.0 1.0 0.00 0.00 0.00 58 1021.4
20260904080405 74 9 0.0 1.0 0.00 0.00 0.00 59 1021.3
20260904075405 73 9 0.0 0.0 0.00 0.00 0.00 58 1021.3
20260904074904 73 9 0.0 0.0 0.00 0.00 0.00 58 1021.3
20260904074405 74 9 1.0 7.0 0.00 0.00 0.00 57 1021.3
20260904073905 75 346 5.0 7.0 0.00 0.00 0.00 56 1021.2
20260904073405 75 288 1.0 3.0 0.00 0.00 0.00 56 1020.9
20260904071905 74 5 0.0 1.0 0.00 0.00 0.00 58 1020.8
20260904071405 75 5 0.0 1.0 0.00 0.00 0.00 58 1020.8
20260904070904 75 5 0.0 0.0 0.00 0.00 0.00 57 1021.0
20260904070404 75 5 0.0 1.0 0.00 0.00 0.00 56 1020.9
20260904065405 75 5 0.0 0.0 0.00 0.00 0.00 55 1020.2
20260904064904 75 5 0.0 0.0 0.00 0.00 0.00 55 1020.1
20260904064405 75 5 0.0 0.0 0.00 0.00 0.00 55 1020.2
20260904063905 74 5 0.0 0.0 0.00 0.00 0.00 55 1019.9
20260904061905 75 5 0.0 0.0 0.00 0.00 0.00 55 1019.8
20260904061405 75 5 0.0 0.0 0.00 0.00 0.00 54 1019.6
20260904060905 74 5 0.0 0.0 0.00 0.00 0.00 54 1019.6
20260904060405 74 5 0.0 0.0 0.00 0.00 0.00 54 1019.4
20260904055404 74 5 0.0 0.0 0.00 0.00 0.00 55 1019.2
20260904054904 75 5 0.0 0.0 0.00 0.00 0.00 55 1019.0
20260904054405 75 5 0.0 0.0 0.00 0.00 0.00 55 1019.2
20260904053904 75 5 0.0 1.0 0.00 0.00 0.00 53 1019.1
20260904053405 76 5 0.0 1.0 0.00 0.00 0.00 53 1019.0
20260904052905 76 11 0.0 1.0 0.00 0.00 0.00 53 1018.8
20260904052404 76 263 0.0 1.0 0.00 0.00 0.00 53 1018.8
20260904051905 76 265 0.0 1.0 0.00 0.00 0.00 54 1018.8
20260904051404 76 248 0.0 1.0 0.00 0.00 0.00 54 1018.7
20260904050404 75 251 2.0 5.0 0.00 0.00 0.00 54 1018.7
20260904045905 75 245 0.0 1.0 0.00 0.00 0.00 54 1018.9
20260904045405 75 309 0.0 0.0 0.00 0.00 0.00 54 1019.0
20260904044905 75 247 0.0 3.0 0.00 0.00 0.00 54 1019.0
20260904043905 75 240 1.0 8.0 0.00 0.00 0.00 53 1019.0
20260904042905 76 254 0.0 5.0 0.00 0.00 0.00 53 1019.2
20260904042405 76 236 4.0 6.0 0.00 0.00 0.00 55 1019.0
20260904041904 76 37 0.0 0.0 0.00 0.00 0.00 55 1019.5
20260904041405 77 37 0.0 0.0 0.00 0.00 0.00 55 1019.3
20260904040905 76 37 0.0 0.0 0.00 0.00 0.00 56 1019.4
20260904040404 76 37 0.0 1.0 0.00 0.00 0.00 56 1019.4
20260904035905 76 37 0.0 0.0 0.00 0.00 0.00 56 1019.5
20260904034905 76 37 0.0 2.0 0.00 0.00 0.00 56 1019.9
20260904034404 75 249 0.0 0.0 0.00 0.00 0.00 55 1019.8
20260904033905 75 249 0.0 1.0 0.00 0.00 0.00 56 1019.7
20260904032905 74 217 0.0 0.0 0.00 0.00 0.00 56 1019.7
20260904032405 74 217 0.0 0.0 0.00 0.00 0.00 55 1019.8
20260904031906 75 217 0.0 2.0 0.00 0.00 0.00 54 1019.8
20260904031404 76 61 5.0 12.0 0.00 0.00 0.00 54 1020.1
20260904030405 77 329 2.0 7.0 0.00 0.00 0.00 50 1019.0
20260904024905 78 289 0.0 3.0 0.00 0.00 0.00 47 1018.7
20260904024404 78 301 1.0 5.0 0.00 0.00 0.00 47 1018.7
20260904023904 78 275 1.0 5.0 0.00 0.00 0.00 48 1018.7
20260904023404 78 287 1.0 6.0 0.00 0.00 0.00 48 1018.7
20260904022905 78 346 1.0 3.0 0.00 0.00 0.00 48 1018.8
20260904021905 78 346 0.0 0.0 0.00 0.00 0.00 48 1018.9
20260904021404 78 346 0.0 0.0 0.00 0.00 0.00 47 1018.9
20260904020905 79 346 0.0 5.0 0.00 0.00 0.00 47 1019.0
20260904020405 79 346 1.0 5.0 0.00 0.00 0.00 46 1019.1
20260904015405 79 346 0.0 0.0 0.00 0.00 0.00 45 1019.3
20260904014905 79 346 0.0 0.0 0.00 0.00 0.00 45 1019.3
20260904014405 79 346 0.0 0.0 0.00 0.00 0.00 44 1019.3
20260904013905 79 346 0.0 0.0 0.00 0.00 0.00 44 1019.3
20260904013405 79 346 0.0 1.0 0.00 0.00 0.00 43 1019.4
20260904012905 79 327 1.0 6.0 0.00 0.00 0.00 42 1019.3
20260904012405 80 304 4.0 6.0 0.00 0.00 0.00 43 1019.2
20260904011905 80 296 0.0 5.0 0.00 0.00 0.00 43 1019.2
20260904010904 80 17 0.0 1.0 0.00 0.00 0.00 45 1019.3
20260904010405 81 19 0.0 0.0 0.00 0.00 0.00 48 1019.5
20260904005905 81 19 0.0 0.0 0.00 0.00 0.00 51 1019.5
20260904005405 81 19 0.0 0.0 0.00 0.00 0.00 52 1019.4
20260904004905 81 19 0.0 0.0 0.00 0.00 0.00 53 1019.4
20260904004405 82 19 0.0 0.0 0.00 0.00 0.00 54 1019.4
20260904003905 82 19 0.0 0.0 0.00 0.00 0.00 54 1019.4
20260904003405 82 19 0.0 0.0 0.00 0.00 0.00 54 1019.4
20260904002905 82 19 0.0 0.0 0.00 0.00 0.00 54 1019.4
20260904002404 82 19 0.0 0.0 0.00 0.00 0.00 53 1019.4
20260904001904 82 19 0.0 0.0 0.00 0.00 0.00 53 1019.4
20260904001404 82 19 0.0 0.0 0.00 0.00 0.00 52 1019.5
20260904000904 82 19 0.0 0.0 0.00 0.00 0.00 52 1019.6
20260904000404 82 19 0.0 0.0 0.00 0.00 0.00 51 1019.6
20260903235905 82 19 0.0 2.0 0.00 0.00 0.00 50 1019.7
20260903235405 82 19 0.0 0.0 0.00 0.00 0.00 49 1019.7
20260903234904 82 19 0.0 3.0 0.00 0.00 0.00 48 1019.7
20260903234405 82 19 0.0 0.0 0.00 0.00 0.00 46 1019.7
20260903233905 82 19 0.0 0.0 0.00 0.00 0.00 44 1019.7
20260903233405 82 19 0.0 0.0 0.00 0.00 0.00 44 1019.7
20260903232904 81 19 0.0 0.0 0.00 0.00 0.00 43 1019.6
20260903232404 82 19 0.0 0.0 0.00 0.00 0.00 41 1019.5
20260903231905 82 19 0.0 3.0 0.00 0.00 0.00 40 1019.6
20260903230905 86 38 6.0 10.0 0.00 0.00 0.00 36 1019.5
20260903230404 87 186 0.0 0.0 0.00 0.00 0.00 34 1019.2
20260903225405 88 186 0.0 0.0 0.00 0.00 0.00 34 1019.1
20260903224405 89 186 0.0 0.0 0.00 0.00 0.00 34 1019.1
20260903223905 89 186 0.0 0.0 0.00 0.00 0.00 32 1019.0
20260903223405 90 186 0.0 0.0 0.00 0.00 0.00 32 1019.0
20260903222905 90 186 0.0 0.0 0.00 0.00 0.00 32 1019.0
20260903222404 91 186 0.0 0.0 0.00 0.00 0.00 30 1019.0
20260903221905 91 186 0.0 0.0 0.00 0.00 0.00 29 1019.0
20260903221404 91 186 0.0 0.0 0.00 0.00 0.00 29 1019.0
20260903220904 91 186 0.0 0.0 0.00 0.00 0.00 29 1019.0
20260903220404 91 186 2.0 3.0 0.00 0.00 0.00 29 1019.0
20260903215904 92 186 1.0 2.0 0.00 0.00 0.00 29 1019.0
20260903215404 92 186 0.0 0.0 0.00 0.00 0.00 28 1019.0
20260903214904 92 186 0.0 0.0 0.00 0.00 0.00 28 1018.9
20260903214404 93 186 0.0 1.0 0.00 0.00 0.00 28 1018.9
20260903213405 93 186 0.0 0.0 0.00 0.00 0.00 28 1019.0
20260903212904 94 186 0.0 0.0 0.00 0.00 0.00 27 1019.0
20260903212407 94 186 0.0 1.0 0.00 0.00 0.00 26 1019.1
20260903211904 94 186 0.0 0.0 0.00 0.00 0.00 26 1019.0
20260903211405 94 186 1.0 3.0 0.00 0.00 0.00 26 1019.2
20260903210906 94 186 2.0 3.0 0.00 0.00 0.00 26 1019.1
20260903210405 94 186 1.0 3.0 0.00 0.00 0.00 26 1019.0
20260903205404 94 186 1.0 5.0 0.00 0.00 0.00 25 1019.0
20260903204904 94 186 3.0 6.0 0.00 0.00 0.00 26 1019.0
20260903203904 94 186 1.0 2.0 0.00 0.00 0.00 27 1019.0
20260903203405 94 186 0.0 3.0 0.00 0.00 0.00 27 1019.0
20260903202904 95 186 2.0 5.0 0.00 0.00 0.00 27 1018.9
20260903202405 96 186 2.0 3.0 0.00 0.00 0.00 26 1018.9
20260903201905 96 186 0.0 0.0 0.00 0.00 0.00 26 1018.8
20260903201404 96 186 0.0 0.0 0.00 0.00 0.00 25 1018.7
20260903200905 96 186 0.0 0.0 0.00 0.00 0.00 25 1018.7
20260903195904 97 186 2.0 6.0 0.00 0.00 0.00 24 1018.5
20260903195404 97 212 1.0 6.0 0.00 0.00 0.00 24 1018.4
20260903194904 97 269 2.0 5.0 0.00 0.00 0.00 24 1018.4
20260903193904 97 241 0.0 3.0 0.00 0.00 0.00 24 1018.2